Find Starlink 37999

NORAD ID: 100486 Int'l Des: 2026-196 Owner: SPXS Country: US Constellation: starlink operational

現在のビュー

3D地球を読み込み中...

About Starlink 37999

Starlink 37999 (NORAD 100486) is a starlink constellation satellite launched Aug 25, 2026 by SPXS of US. with a mass of 575.00 kg.

次回通過

Passes for default location (London). Set your location on the main map for personalized predictions.

高度履歴

Loading altitude history...

軌道要素

1 A0486U 26196P 26255.30702783 .00066856 00000-0 35623-3 0 9995
2 A0486 53.1574 282.5017 0001181 81.6567 278.4589 15.79829215 4066
Epoch: Sep 12, 2026 • Age: 10 hours

現在のステータス

高度 349.9 km
遠地点 / 近地点 N/A
速度 7.70 km/s
衛星直下点 -52.97°S, 56.96°W
打ち上げ日 Aug 25, 2026
運用期間 18 days
タイプ internet

技術仕様

分類 Payload
質量 575.00 kg
乾燥質量 530.00 kg
総質量 575.00 kg
長さ 0.30 m
直径 4.10 m
スパン 29.00 m
形状 Box + pan
製造者 SPXS
バスタイプ Starlink V2MO
フェーズステータス In Orbit
所有者/国 SPXS/US

Most Searched